Time,TemperatureF,DewpointF,PressureIn,WindDirection,WindDirectionDegrees,WindSpeedMPH,WindSpeedGustMPH,Humidity,HourlyPrecipIn,Conditions,Clouds,dailyrainin,SoftwareType,DateUTC
2013-03-17 00:02:00,57.0,-99.9,-100.00,NE,51,0.0,1.0,-999,-99.99,,,-99.99,,2013-03-17 06:02:00,
2013-03-17 00:22:00,51.0,-99.9,-100.00,East,81,1.0,2.0,-999,-99.99,,,-99.99,,2013-03-17 06:22:00,
2013-03-17 00:33:00,51.0,-99.9,-100.00,East,81,1.0,2.0,-999,-99.99,,,-99.99,,2013-03-17 06:33:00,
2013-03-17 00:42:00,51.0,-99.9,-100.00,East,81,1.0,2.0,-999,-99.99,,,-99.99,,2013-03-17 06:42:00,
2013-03-17 00:53:00,50.0,-99.9,-100.00,ESE,113,0.0,1.0,-999,-99.99,,,-99.99,,2013-03-17 06:53:00,
2013-03-17 01:02:00,47.0,-99.9,-100.00,ENE,65,1.0,2.0,-999,-99.99,,,-99.99,,2013-03-17 07:02:00,
2013-03-17 01:12:00,47.0,-99.9,-100.00,ENE,65,1.0,2.0,-999,-99.99,,,-99.99,,2013-03-17 07:12:00,
2013-03-17 01:52:00,51.0,-99.9,-100.00,ENE,64,2.0,3.0,-999,-99.99,,,-99.99,,2013-03-17 07:52:00,
2013-03-17 02:03:00,51.0,-99.9,-100.00,NE,46,2.0,3.0,-999,-99.99,,,-99.99,,2013-03-17 08:03:00,
2013-03-17 02:13:00,51.0,-99.9,-100.00,NE,46,2.0,3.0,-999,-99.99,,,-99.99,,2013-03-17 08:13:00,
2013-03-17 02:33:00,52.0,-99.9,-100.00,NE,46,0.0,2.0,-999,-99.99,,,-99.99,,2013-03-17 08:33:00,
2013-03-17 02:42:00,52.0,-99.9,-100.00,NE,46,0.0,2.0,-999,-99.99,,,-99.99,,2013-03-17 08:42:00,
2013-03-17 02:52:00,52.0,-99.9,-100.00,NE,46,0.0,2.0,-999,-99.99,,,-99.99,,2013-03-17 08:52:00,
2013-03-17 03:23:00,49.0,-99.9,-100.00,NE,52,1.0,1.0,-999,-99.99,,,-99.99,,2013-03-17 09:23:00,
2013-03-17 03:33:00,49.0,-99.9,-100.00,NE,52,1.0,1.0,-999,-99.99,,,-99.99,,2013-03-17 09:33:00,
2013-03-17 04:33:00,47.0,-99.9,-100.00,East,80,0.0,2.0,-999,-99.99,,,-99.99,,2013-03-17 10:33:00,
2013-03-17 04:42:00,47.0,-99.9,-100.00,East,80,0.0,2.0,-999,-99.99,,,-99.99,,2013-03-17 10:42:00,
2013-03-17 04:53:00,47.0,-99.9,-100.00,East,80,0.0,2.0,-999,-99.99,,,-99.99,,2013-03-17 10:53:00,
2013-03-17 05:23:00,50.0,-99.9,-100.00,NE,41,1.0,1.0,-999,-99.99,,,-99.99,,2013-03-17 11:23:00,
2013-03-17 05:33:00,44.0,-99.9,-100.00,NE,41,1.0,2.0,-999,-99.99,,,-99.99,,2013-03-17 11:33:00,
2013-03-17 05:43:00,44.0,-99.9,-100.00,NE,41,1.0,2.0,-999,-99.99,,,-99.99,,2013-03-17 11:43:00,
2013-03-17 06:10:00,43.0,-99.9,-100.00,ENE,72,1.0,3.0,-999,-99.99,,,-99.99,,2013-03-17 12:10:00,
2013-03-17 06:22:00,43.0,-99.9,-100.00,ESE,117,0.0,2.0,-999,-99.99,,,-99.99,,2013-03-17 12:22:00,
2013-03-17 06:33:00,43.0,-99.9,-100.00,ESE,117,0.0,2.0,-999,-99.99,,,-99.99,,2013-03-17 12:33:00,
2013-03-17 06:52:00,43.0,-99.9,-100.00,ENE,72,1.0,3.0,-999,-99.99,,,-99.99,,2013-03-17 12:52:00,
2013-03-17 07:02:00,43.0,-99.9,-100.00,ENE,72,1.0,3.0,-999,-99.99,,,-99.99,,2013-03-17 13:02:00,
2013-03-17 08:23:00,45.0,-99.9,-100.00,ENE,75,1.0,2.0,-999,-99.99,,,-99.99,,2013-03-17 14:23:00,
2013-03-17 08:33:00,45.0,-99.9,-100.00,ENE,75,1.0,2.0,-999,-99.99,,,-99.99,,2013-03-17 14:33:00,
2013-03-17 10:10:00,65.0,-99.9,-100.00,ENE,62,5.0,8.0,-999,-99.99,,,-99.99,,2013-03-17 16:10:00,
2013-03-17 10:53:00,65.0,-99.9,-100.00,ENE,62,5.0,8.0,-999,-99.99,,,-99.99,,2013-03-17 16:53:00,
2013-03-17 11:03:00,65.0,-99.9,-100.00,ENE,62,5.0,8.0,-999,-99.99,,,-99.99,,2013-03-17 17:03:00,
2013-03-17 13:10:00,72.0,-99.9,-100.00,ENE,64,10.0,12.0,-999,-99.99,,,-99.99,,2013-03-17 19:10:00,
2013-03-17 13:53:00,72.0,-99.9,-100.00,ENE,64,10.0,12.0,-999,-99.99,,,-99.99,,2013-03-17 19:53:00,
2013-03-17 14:03:00,72.0,-99.9,-100.00,ENE,64,10.0,12.0,-999,-99.99,,,-99.99,,2013-03-17 20:03:00,
2013-03-17 15:40:00,73.0,-99.9,-100.00,ENE,75,10.0,18.0,-999,-99.99,,,-99.99,,2013-03-17 21:40:00,
2013-03-17 16:23:00,73.0,-99.9,-100.00,ENE,75,10.0,18.0,-999,-99.99,,,-99.99,,2013-03-17 22:23:00,
2013-03-17 16:30:00,73.0,-99.9,-100.00,ENE,61,10.0,14.0,-999,-99.99,,,-99.99,,2013-03-17 22:30:00,
2013-03-17 16:34:00,73.0,-99.9,-100.00,ENE,75,10.0,18.0,-999,-99.99,,,-99.99,,2013-03-17 22:34:00,
2013-03-17 17:00:00,73.0,-99.9,-100.00,East,79,14.0,14.0,-999,-99.99,,,-99.99,,2013-03-17 23:00:00,
2013-03-17 17:23:00,73.0,-99.9,-100.00,ENE,61,10.0,14.0,-999,-99.99,,,-99.99,,2013-03-17 23:23:00,
2013-03-17 17:53:00,73.0,-99.9,-100.00,East,79,14.0,14.0,-999,-99.99,,,-99.99,,2013-03-17 23:53:00,
2013-03-17 18:53:00,71.0,-99.9,-100.00,NE,49,11.0,13.0,-999,-99.99,,,-99.99,,2013-03-18 00:53:00,
2013-03-17 19:02:00,71.0,-99.9,-100.00,NE,49,11.0,13.0,-999,-99.99,,,-99.99,,2013-03-18 01:02:00,
2013-03-17 19:13:00,71.0,-99.9,-100.00,NE,49,11.0,13.0,-999,-99.99,,,-99.99,,2013-03-18 01:13:00,
2013-03-17 19:22:00,71.0,-99.9,-100.00,East,82,6.0,12.0,-999,-99.99,,,-99.99,,2013-03-18 01:22:00,
2013-03-17 19:33:00,71.0,-99.9,-100.00,East,82,6.0,12.0,-999,-99.99,,,-99.99,,2013-03-18 01:33:00,
2013-03-17 19:50:00,67.0,-99.9,-100.00,NE,55,6.0,9.0,-999,-99.99,,,-99.99,,2013-03-18 01:50:00,
2013-03-17 20:32:00,67.0,-99.9,-100.00,NE,55,6.0,9.0,-999,-99.99,,,-99.99,,2013-03-18 02:32:00,
2013-03-17 20:42:00,67.0,-99.9,-100.00,NE,55,6.0,9.0,-999,-99.99,,,-99.99,,2013-03-18 02:42:00,
2013-03-17 22:50:00,61.0,-99.9,-100.00,ENE,74,7.0,10.0,-999,-99.99,,,-99.99,,2013-03-18 04:50:00,
2013-03-17 23:33:00,61.0,-99.9,-100.00,ENE,74,7.0,10.0,-999,-99.99,,,-99.99,,2013-03-18 05:33:00,
2013-03-17 23:43:00,61.0,-99.9,-100.00,ENE,74,7.0,10.0,-999,-99.99,,,-99.99,,2013-03-18 05:43:00,